Find Starlink 32623

NORAD ID: 62152 Int'l Des: 2024-224 Owner: SPXS Country: US Constellation: starlink operational
LEOCIRCULAR

現在のビュー

3D地球を読み込み中...

About Starlink 32623

Starlink 32623 (NORAD 62152) is a starlink constellation satellite (v2 mini) launched Nov 30, 2024 by SPXS of US. It operates in LEO, CIRCULAR orbit with a mass of 730.00 kg.

Starlink 32623について

説明を読み込み中...

次回通過

Passes for default location (London). Set your location on the main map for personalized predictions.

高度履歴

Loading altitude history...

軌道要素

1 62152U 24224P 26193.00185795 .00007920 00000-0 29698-3 0 9991
2 62152 42.9996 179.3668 0000967 260.2285 99.8458 15.27583576 91398
Epoch: Jul 12, 2026 • Age: 25 hours

現在のステータス

高度 495.0 km
遠地点 / 近地点 N/A
速度 7.62 km/s
衛星直下点 -41.53°S, 159.42°E
打ち上げ日 Nov 30, 2024
運用期間 1.6 years
タイプ internet

技術仕様

分類 Payload
質量 730.00 kg
乾燥質量 700.00 kg
総質量 730.00 kg
長さ 0.30 m
直径 4.10 m
スパン 29.00 m
形状 Box + pan
製造者 SPXS
バスタイプ Starlink V2M
フェーズステータス In Orbit
所有者/国 SPXS/US

Most Searched